Regional Weather Roundup
Issued by NWS

Home | Current Version | Previous Version | Text Only | Print | Product List | Glossary On
Versions: 1 2 3 4 5 6 7 8 9 10 11 12 13 14 15 16 17 18 19 20 21 22 23 24 25 26 27 28 29 30 31 32 33 34 35 36 37 38 39 40 41 42 43 44 45 46 47 48 49 50
000
ASUS43 KLSX 221207
RWRMO

WEATHER SUMMARY FOR MISSOURI
NATIONAL WEATHER SERVICE SPRINGFIELD MO
700 AM CDT MON SEP 22 2014

NOTE: "FAIR" INDICATES FEW OR NO CLOUDS BELOW 12,000 FEET WITH NO
       SIGNIFICANT WEATHER AND/OR OBSTRUCTIONS TO VISIBILITY.
       CURRENT SKY AND/OR WEATHER CONDITIONS ARE NOT AVAILABLE FOR
       CHILLICOTHE AND FARMINGTON.

MOZ001>031-035>038-043-044-053-054-221300-
...NORTHERN AND WESTERN MISSOURI...

CITY           SKY/WX    TMP DP  RH WIND       PRES   REMARKS
KANSAS CTY INT CLEAR     48  47  96 N5        30.31R
6HR MIN TEMP:  48; 6HR MAX TEMP:  57;

KANSAS C DTWN  CLEAR     52  49  89 CALM      30.31R
6HR MIN TEMP:  52; 6HR MAX TEMP:  60;

LEE`S SUMMIT   CLEAR     50  47  89 CALM      30.31R
6HR MIN TEMP:  50; 6HR MAX TEMP:  58;

ST JOSEPH      CLEAR     46  44  93 CALM      30.31S
6HR MIN TEMP:  41; 6HR MAX TEMP:  51;

CHILLICOTHE      N/A     48  46  93 CALM      30.32R
6HR MIN TEMP:  47; 6HR MAX TEMP:  52;

KIRKSVILLE     CLEAR     45  43  93 W5        30.31R FOG
6HR MIN TEMP:  44; 6HR MAX TEMP:  53;


$$
MOZ066>068-077>081-088>096-101>105-221300-
...SOUTHWEST MISSOURI...

CITY           SKY/WX    TMP DP  RH WIND       PRES   REMARKS
SPRINGFIELD    CLEAR     50  46  86 CALM      30.27R
6HR MIN TEMP:  49; 6HR MAX TEMP:  58;

JOPLIN         CLEAR     48  48 100 NE3       30.29R
6HR MIN TEMP:  48; 6HR MAX TEMP:  59;


$$
MOZ032>034-039>042-045>050-055>058-069>072-221300-
...CENTRAL MISSOURI...

CITY           SKY/WX    TMP DP  RH WIND       PRES   REMARKS
COLUMBIA       CLEAR     48  47  96 NW6       30.29R
6HR MIN TEMP:  48; 6HR MAX TEMP:  54;

JEFFERSON CITY CLEAR     49  48  97 NW3       30.28R
6HR MIN TEMP:  49; 6HR MAX TEMP:  57;

ROLLA          CLEAR     48  46  93 NW3       30.26R
6HR MIN TEMP:  47; 6HR MAX TEMP:  54;

SEDALIA        CLEAR     49  47  93 NW6       30.30R
6HR MIN TEMP:  49; 6HR MAX TEMP:  56;

WHITEMAN AFB   CLEAR     47  46  97 CALM      30.30R
OSAGE BEACH    CLEAR     48  45  87 CALM      30.29R

$$
MOZ051-052-059>065-221300-
...EAST CENTRAL MISSOURI...

CITY           SKY/WX    TMP DP  RH WIND       PRES   REMARKS
ST LOUIS INTL  CLEAR     53  49  86 NW5       30.26R
6HR MIN TEMP:  53; 6HR MAX TEMP:  58;

SPIRIT OF STL  CLEAR     48  47  96 CALM      30.26R
6HR MIN TEMP:  47; 6HR MAX TEMP:  53;

ST CHARLES     CLEAR     52  49  89 N8        30.25R
6HR MIN TEMP:  52; 6HR MAX TEMP:  58;


$$
MOZ072>076-082>087-097>100-106>115-221300-
...SOUTH CENTRAL AND SOUTHEAST MISSOURI...

CITY           SKY/WX    TMP DP  RH WIND       PRES   REMARKS
CAPE GIRARDEAU CLEAR     49  47  93 CALM      30.23R
6HR MIN TEMP:  48; 6HR MAX TEMP:  60;

FARMINGTON     CLEAR     48  46  93 CALM      30.27R
6HR MIN TEMP:  48; 6HR MAX TEMP:  57;

POPLAR BLUFF   CLEAR     52  48  86 N3        30.22R
6HR MIN TEMP:  51; 6HR MAX TEMP:  59;

WEST PLAINS    CLEAR     50  46  86 N3        30.28R
6HR MIN TEMP:  49; 6HR MAX TEMP:  57;


$$


USA.gov is the U.S. government's official web portal to all federal, state and local government web resources and services.